User: anonymous   Login
Location: Bougoura
(13.1861°N, 5.0773°W)
Time: 17:04:19
(UTC+00:00)
Language:

DELTA-4 R/B - Orbit

View from above orbital plane
View from above orbital plane
View from above satellite
View from above satellite

Ground track
Ground track

The orbit data is extracted from the following two-line orbital elements,

1 27555U 02051B   20337.82374339 -.00000009  00000-0  26361-3 0  9997
2 27555  13.5314 110.6209 7135220 144.6438 295.6577  2.35604207155171
Epoch (UTC): 02 December 2020 19:46:11
Eccentricity: 0.7135220
inclination: 13.5314°
perigee height: 456 km
apogee height: 34501 km
right ascension of ascending node: 110.6209°
argument of perigee: 144.6438°
revolutions per day: 2.35604207
mean anomaly at epoch: 295.6577°
orbit number at epoch: 15517

The dashed part of the orbit path shows where the satellite is in the earth's shadow,  

DLR